Yuma, AZ

9:01 PM MST on December 08, 2016 (GMT -0700)
Yuma Marine Corps Air Station

Weather History for KNYL - April, 2014

Change the Weather History Date:

Saturday, April 12, 2014

  Actual Average Record
Temperature  
Mean Temperature 77 °F 72 °F  
Max Temperature 91 °F 85 °F 102 °F (1962)
Min Temperature 63 °F 59 °F 41 °F (1912)
Degree Days  
Heating Degree Days 0 1  
Month to date heating degree days 5 12  
Since 1 July heating degree days 370 685  
Cooling Degree Days 12 7  
Month to date cooling degree days 98 76  
Year to date cooling degree days 397 229  
Growing Degree Days 26 (Base 50)    
Moisture  
Dew Point 24 °F    
Average Humidity 16    
Maximum Humidity 25    
Minimum Humidity 7    
Precipitation  
Precipitation 0.00 in 0.01 in 0.16 in (1999)
Month to date precipitation 0.00 0.09  
Year to date precipitation 0.07 1.18  
Sea Level Pressure  
Sea Level Pressure 29.72 in    
Wind  
Wind Speed 11 mph (West)    
Max Wind Speed 21 mph    
Max Gust Speed 25 mph    
Visibility 10 miles    
Events      
T = Trace of Precipitation, MM = Missing Value Source: NWS Daily Summary

Daily Weather History Graph

Daily Weather History Graph

Search for Another Location

Airport or City:

Trip Planner

Search our weather history database for the weather conditions in past years. The results will help you decide how hot, cold, wet, or windy it might be!

Date:

Astronomy

Apr. 12, 2014 Rise Set
Actual Time 6:12 AM MST 7:06 PM MST
Civil Twilight 5:47 AM MST 7:31 PM MST
Nautical Twilight 5:17 AM MST 8:01 PM MST
Astronomical Twilight 4:47 AM MST 8:31 PM MST
Moon 4:55 PM MST (4/12) 4:33 AM MST (4/12)
Length of Visible Light 13h 44m
Length of Day
12h 53m
Waxing Gibbous, 93% of the Moon is Illuminated
Apr 12
Waxing Gibbous
Apr 15
Full
Apr 22
Last Quarter
Apr 28
New
May 6
First Quarter

Hourly Weather History & Observations

Time (MST) Temp. Dew Point Humidity Pressure Visibility Wind Dir Wind Speed Gust Speed Precip Events Conditions
12:57 AM 77.0 °F 28.0 °F 17% 29.73 in 10.0 mi North 3.5 mph - N/A   Clear
1:57 AM 75.0 °F 21.0 °F 13% 29.72 in 10.0 mi NW 4.6 mph - N/A   Clear
2:57 AM 72.0 °F 23.0 °F 16% 29.72 in 10.0 mi WNW 10.4 mph - N/A   Clear
3:57 AM 70.0 °F 19.0 °F 14% 29.72 in 10.0 mi West 9.2 mph - N/A   Clear
4:57 AM 66.9 °F 19.0 °F 16% 29.72 in 10.0 mi Calm Calm - N/A   Clear
5:57 AM 64.9 °F 23.0 °F 20% 29.73 in 10.0 mi SSE 5.8 mph - N/A   Clear
6:57 AM 63.0 °F 27.0 °F 26% 29.75 in 10.0 mi SSW 4.6 mph - N/A   Clear
7:57 AM 69.1 °F 21.9 °F 17% 29.76 in 10.0 mi WSW 6.9 mph - N/A   Clear
8:57 AM 73.0 °F 21.0 °F 14% 29.76 in 10.0 mi West 10.4 mph - N/A   Clear
9:57 AM 79.0 °F 19.9 °F 11% 29.77 in 10.0 mi WNW 17.3 mph - N/A   Clear
10:57 AM 82.9 °F 19.9 °F 10% 29.77 in 10.0 mi West 15.0 mph - N/A   Clear
11:57 AM 84.9 °F 19.9 °F 9% 29.74 in 10.0 mi West 15.0 mph - N/A   Clear
12:57 PM 87.1 °F 21.9 °F 9% 29.72 in 10.0 mi WSW 15.0 mph - N/A   Mostly Cloudy
1:57 PM 89.1 °F 19.9 °F 8% 29.70 in 10.0 mi SW 12.7 mph 20.7 mph N/A   Clear
2:57 PM 89.1 °F 21.0 °F 8% 29.68 in 10.0 mi SW 16.1 mph 21.9 mph N/A   Clear
3:57 PM 89.1 °F 18.0 °F 7% 29.66 in 10.0 mi West 18.4 mph 23.0 mph N/A   Clear
4:57 PM 89.1 °F 26.1 °F 10% 29.65 in 10.0 mi West 16.1 mph - N/A   Clear
5:57 PM 84.9 °F 30.0 °F 14% 29.66 in 9.0 mi West 20.7 mph - N/A   Clear
6:57 PM 81.0 °F 30.0 °F 16% 29.67 in 10.0 mi West 12.7 mph - N/A   Clear
7:57 PM 75.9 °F 30.9 °F 19% 29.69 in 10.0 mi West 9.2 mph - N/A   Clear
8:57 PM 72.0 °F 33.1 °F 24% 29.72 in 10.0 mi West 6.9 mph - N/A   Clear
9:57 PM 70.0 °F 32.0 °F 25% 29.73 in 10.0 mi West 6.9 mph - N/A   Clear
10:57 PM 70.0 °F 30.0 °F 23% 29.74 in 10.0 mi WNW 10.4 mph - N/A   Clear
11:57 PM 70.0 °F 30.9 °F 24% 29.75 in 10.0 mi NW 6.9 mph - N/A   Clear